Regional Weather Roundup
Issued by NWS

Home | Current Version | Previous Version | Graphics & Text | Print | Product List | Glossary On
Versions: 1 2 3 4 5 6 7 8 9 10 11 12 13 14 15 16 17 18 19 20 21 22 23 24 25 26 27 28 29 30 31 32 33 34 35 36 37 38 39 40 41 42 43 44 45 46 47 48 49 50
000
ASUS43 KLSX 180307
RWRMO

WEATHER SUMMARY FOR MISSOURI
NATIONAL WEATHER SERVICE SPRINGFIELD MO
900 PM CST WED DEC 17 2014

NOTE: "FAIR" INDICATES FEW OR NO CLOUDS BELOW 12,000 FEET WITH NO
       SIGNIFICANT WEATHER AND/OR OBSTRUCTIONS TO VISIBILITY.
       CURRENT SKY AND/OR WEATHER CONDITIONS ARE NOT AVAILABLE FOR
       CHILLICOTHE AND FARMINGTON.

MOZ001>031-035>038-043-044-053-054-180400-
...NORTHERN AND WESTERN MISSOURI...

CITY           SKY/WX    TMP DP  RH WIND       PRES   REMARKS
KANSAS CTY INT CLOUDY    30  23  75 E8        30.25F WCI  22
KANSAS C DTWN  CLOUDY    31  22  69 E7        30.26F WCI  24
LEE`S SUMMIT   CLOUDY    29  22  75 E6        30.26F WCI  23
ST JOSEPH      CLOUDY    30  21  69 E5        30.28R WCI  25
CHILLICOTHE      N/A     30  21  69 CALM      30.31R
KIRKSVILLE     CLOUDY    26  22  84 SE5       30.30R WCI  20

$$
MOZ066>068-077>081-088>096-101>105-180400-
...SOUTHWEST MISSOURI...

CITY           SKY/WX    TMP DP  RH WIND       PRES   REMARKS
SPRINGFIELD    LGT SNOW  33  32  96 E3        30.22F FOG
JOPLIN         LGT RAIN  33  32  96 E5        30.23R FOG     WCI  29

$$
MOZ032>034-039>042-045>050-055>058-069>072-180400-
...CENTRAL MISSOURI...

CITY           SKY/WX    TMP DP  RH WIND       PRES   REMARKS
COLUMBIA       CLOUDY    32  26  78 E5        30.27F WCI  27
JEFFERSON CITY CLOUDY    35  24  64 NE5       30.30R
ROLLA          CLOUDY    33  24  69 N3        30.24S
SEDALIA        CLOUDY    33  25  72 E5        30.26F WCI  29
WHITEMAN AFB   CLOUDY    31  24  74 NE5       30.26S WCI  26
WARRENSBURG    CLOUDY    30  25  80 N5        30.26F WCI  25
OSAGE BEACH    CLOUDY    34  23  64 NE3       30.27S

$$
MOZ051-052-059>065-180400-
...EAST CENTRAL MISSOURI...

CITY           SKY/WX    TMP DP  RH WIND       PRES   REMARKS
ST LOUIS INTL  CLOUDY    32  24  72 NE6       30.30R WCI  26
SPIRIT OF STL  CLOUDY   N/A N/A N/A NE6       30.29R
ST CHARLES     CLOUDY    30  24  78 NE5       30.31R WCI  25

$$
MOZ072>076-082>087-097>100-106>115-180400-
...SOUTH CENTRAL AND SOUTHEAST MISSOURI...

CITY           SKY/WX    TMP DP  RH WIND       PRES   REMARKS
CAPE GIRARDEAU CLOUDY    38  29  70 NE5       30.27S
FARMINGTON     CLOUDY    36  27  69 N3        30.27R
POPLAR BLUFF   LGT RAIN  38  30  73 CALM      30.27R
WEST PLAINS    RAIN      35  32  88 NW3       30.26R FOG

$$


USA.gov is the U.S. government's official web portal to all federal, state and local government web resources and services.